Location: ????????
(56.1167°N, 38.6333°E)
Time: 21:22:56
(UTC+00:00)

SL-12 R/B(2) - Pass Details

Date: 18 November 2025
Orbit: 1173 x 2175 km, 63.4° (Epoch: 06 December)

Event Time Altitude Azimuth Distance (km) Brightness Sun altitude
Rises 15:18:01 0° 212° (SSW) 4,245 7.5 -17.0°
Reaches altitude 10° 15:20:37 10° 210° (SSW) 3,362 6.8 -17.3°
Maximum altitude 15:28:43 67° 130° (SE) 1,629 4.4 -18.5°
Enters shadow 15:35:54 21° 54° (NE) 3,207 5.7 -19.5°
